Flag for U.S.A. Weather past 2 weeks in Birmingham, Alabama, U.S.A.

Now
59 °F

Partly sunny.


Feels Like: 59 °F
Forecast: 27 / 58 °F
Wind: 5 mph from North

Location: Birmingham International Airport

Current Time: Jan 31, 2015 at 3:14:26 PM

Latest Report: Jan 31, 2015 at 2:53 PM


Visibility: 10 mi

Pressure: 30.27 "Hg

Humidity: 14%

Dew point: 10 °F

Location of BirminghamLocation

Historic Weather in Birmingham — Graph

°F

Birmingham temperature yesterday

Maximum temperature yesterday: 51 °F (at 2:53 PM)
Minimum temperature yesterday: 30 °F (at 11:53 PM)
Average temperature yesterday: 42 °F

Past Weeks' High & Low Weather Summary

 TemperatureHumidityPressure
High67 °F (Jan 19, 1:53 PM)97% (Jan 23, 11:53 AM)30.43 "Hg (Jan 23, 11:53 AM)
Low26 °F (Jan 28, 5:53 AM)15% (Jan 19, 2:53 PM)29.74 "Hg (Jan 25, 3:53 PM)
Average45 °F63%30.12 "Hg
* Reported Jan 16 1:53 PM — Jan 31 1:53 PM, Birmingham, Weather by CustomWeather, © 2014

Note: Actual official high and low records may vary slightly from our data, if they occured in-between our weather recording intervals... More about our weather records

Advertising

Birmingham weather history for previous 24 hours

 ConditionsComfort  
Time TempWeatherWind HumidityBarometerVisibility
1:53 PM
Jan 31
58 °FPartly sunny.No wind16%30.29 "Hg10 mi
12:53 PM55 °FPartly sunny.3 mph18%30.32 "Hg10 mi
11:53 AM53 °FPartly sunny.3 mph21%30.36 "Hg10 mi
10:53 AM49 °FPartly sunny.3 mph25%30.40 "Hg10 mi
9:53 AM45 °FPartly sunny.6 mph33%30.42 "Hg10 mi
8:53 AM41 °FBroken clouds.8 mph39%30.41 "Hg10 mi
7:53 AM36 °FBroken clouds.8 mph52%30.40 "Hg10 mi
6:53 AM35 °FPartly sunny.7 mph54%30.38 "Hg10 mi
5:53 AM35 °FPassing clouds.6 mph56%30.37 "Hg10 mi
4:53 AM31 °FPassing clouds.No wind67%30.37 "Hg10 mi
3:53 AM30 °FPassing clouds.No wind72%30.37 "Hg10 mi
2:53 AM28 °FPassing clouds.3 mph75%30.36 "Hg10 mi
1:53 AM29 °FClear.No wind79%30.39 "Hg10 mi
12:53 AM32 °FClear.No wind64%30.39 "Hg10 mi
11:53 PM
Jan 30
30 °FClear.3 mph72%30.40 "Hg10 mi
10:53 PM31 °FClear.No wind73%30.41 "Hg10 mi
9:53 PM33 °FClear.3 mph72%30.42 "Hg10 mi
8:53 PM33 °FClear.3 mph70%30.42 "Hg10 mi
7:53 PM36 °FClear.3 mph59%30.42 "Hg10 mi
6:53 PM38 °FClear.6 mph53%30.40 "Hg10 mi
5:53 PM41 °FPassing clouds.5 mph45%30.40 "Hg10 mi
4:53 PM46 °FScattered clouds.7 mph35%30.38 "Hg10 mi
3:53 PM50 °FScattered clouds.13 mph32%30.37 "Hg10 mi
Weather by CustomWeather, © 2014

See weather overviewHow to use our weather pages